Погода в Губине

Польша     51°57′36″N   14°43′37″E
темп.,
°C
ветер,
м/с
пор.,
м/с
влажн.,
%
обл.,
%
осадки,
мм/ч
давл.,
гПа
погр.,
м
2 марта, вт
вт201:00+2ю00890 0.0 103622
04:00+1ююз11910 0.0 103522
07:00+1зюз11900 0.0 103522
10:00+7з22680 0.0 1035259
13:00+12сз12540 0.0 1035522
16:00+11сз11540 0.0 1033373
19:00+6в11710 0.0 103322
22:00+5вюв11750 0.0 103322
3 марта, ср
ср301:00+4вюв22800 0.0 103322
04:00+3ююв22820 0.0 103122
07:00+2ююз23770 0.0 103144
10:00+8юз36620 0.0 1029346
13:00+12юз46550 0.0 1027570
16:00+12зюз47600 0.0 1025699
19:00+8зюз35810 0.0 102396
22:00+7зюз388438 0.0 1021180
4 марта, чт
чт401:00+6з4119119 0.0 1020343
04:00+5зюз4109511 0.0 1018350
07:00+4зюз4109419 0.0 1018389
10:00+8з597237 0.0 1016636
13:00+9зсз586368 0.1 1016968
16:00+6ссз5673100 0.1 1014781
19:00+4ссз3680100 0.3 1015668
22:00+3ссв5895100 0.3 1017493
5 марта, пт
пт501:00+1ссв487999 0.3 1019667
04:00−1ссв388136 0.0 1020439
07:00−2с368218 0.0 1022286
10:00+3с35530 0.0 10231168
13:00+4ссз564015 0.1 10241976
16:00+4ссз574396 0.0 10242062
19:000ссз376381 0.1 1027193
22:00−2ссз37700 0.0 1030227
6 марта, сб
сб601:00−2сз23690 0.0 103194
04:00−2зсз24700 0.0 1032132
07:00−2з24700 0.0 1033128
10:00+2з45470 0.0 1033874
13:00+5з46340 0.0 10321455
16:00+4з46390 0.0 10301296
19:000зюз38580 0.0 1029177
22:000зюз410610 0.0 1029271